Location: Morisset
(33.1080°S, 151.4871°E)
Time: 09:11:54
(UTC+00:00)

Spot 4 Rocket - Pass Details

Date: 29 October 2020
Orbit: 776 x 781 km, 98.7° (Epoch: 27 November)

Event Time Altitude Azimuth Distance (km) Brightness Sun altitude
Exits shadow 16:23:59 67° 186° (S) 853 4.2 -28.6°
Drops below altitude 10° 16:28:30 10° 192° (SSW) 2,363 6.8 -27.9°
Sets 16:30:50 0° 192° (SSW) 3,299 7.7 -27.5°
